Weather History for Istanbul, Turkey

Change the Weather History Date:

Wednesday, April 23, 2014

  Actual Average Record
Temperature  
Mean Temperature 66 °F -  
Max Temperature 76 °F 67 °F 76 °F (2014)
Min Temperature 57 °F 52 °F 42 °F (2013)
Cooling Degree Days 2    
Growing Degree Days 16 (Base 50)    
Moisture  
Dew Point 54 °F    
Average Humidity 66    
Maximum Humidity 88    
Minimum Humidity 37    
Precipitation  
Precipitation 0.00 in - - ()
Sea Level Pressure  
Sea Level Pressure 30.04 in    
Wind  
Wind Speed 4 mph ()    
Max Wind Speed 10 mph    
Max Gust Speed -    
Visibility 6.0 miles    
Events      
Averages and records for this station are not official NWS values.
T = Trace of Precipitation, MM = Missing Value Source: Averaged Metar Reports

Daily Weather History Graph

Daily Weather History Graph

Search for Another Location

Airport:

Trip Planner

Search our weather history database for the weather conditions in past years. The results will help you decide how hot, cold, wet, or windy it might be!

Date:

Astronomy

Apr. 23, 2014 Rise Set
Actual Time 6:14 AM EEST 7:52 PM EEST
Civil Twilight 5:45 AM EEST 8:21 PM EEST
Nautical Twilight 5:09 AM EEST 8:57 PM EEST
Astronomical Twilight 4:32 AM EEST 9:34 PM EEST
Moon 2:35 AM EEST (4/23) 1:36 PM EEST (4/23)
Length of Visible Light 14h 36m
Length of Day
13h 38m
Last Quarter, 38% of the Moon is Illuminated
Apr 23
Last Quarter
Apr 29
New
May 7
First Quarter
May 14
Full
May 21
Last Quarter

Hourly Weather History & Observations

Time (EEST) Temp. Dew Point Humidity Pressure Visibility Wind Dir Wind Speed Gust Speed Precip Events Conditions
12:00 AM 63 °F 52 °F 59% 30.03 in 6 mi WSW 5.8 mph - -   Clear
12:20 AM 62.6 °F 53.6 °F 72% 30.04 in - WSW 4.6 mph - N/A   Clear
12:50 AM 62.6 °F 53.6 °F 72% 30.04 in - SW 3.5 mph - N/A   Clear
1:20 AM 62.6 °F 53.6 °F 72% 30.04 in - SW 3.5 mph - N/A   Clear
1:50 AM 60.8 °F 55.4 °F 82% 30.04 in - West 3.5 mph - N/A   Clear
2:20 AM 60.8 °F 55.4 °F 82% 30.01 in - Variable 1.2 mph - N/A   Clear
2:50 AM 59.0 °F 55.4 °F 88% 30.04 in - SSW 4.6 mph - N/A   Clear
3:00 AM 59 °F 56 °F 85% 30.03 in 6 mi SSW 4.6 mph - -   Clear
3:20 AM 59.0 °F 55.4 °F 88% 30.01 in - Calm Calm - N/A   Clear
3:50 AM 59.0 °F 55.4 °F 88% 30.01 in - SW 2.3 mph - N/A   Clear
4:20 AM 59.0 °F 55.4 °F 88% 30.01 in - SW 4.6 mph - N/A   Clear
4:50 AM 59.0 °F 55.4 °F 88% 30.04 in - WSW 4.6 mph - N/A   Clear
5:20 AM 59.0 °F 55.4 °F 88% 30.04 in - West 3.5 mph - N/A   Clear
5:50 AM 59.0 °F 53.6 °F 82% 30.04 in - West 2.3 mph - N/A   Clear
6:00 AM 58 °F 54 °F 84% 30.04 in 6 mi West 2.3 mph - -  
6:20 AM 59.0 °F 55.4 °F 88% 30.04 in - Calm Calm - N/A   Clear
6:50 AM 59.0 °F 55.4 °F 88% 30.04 in - Variable 2.3 mph - N/A   Clear
7:20 AM 59.0 °F 55.4 °F 88% 30.06 in - SW 3.5 mph - N/A   Clear
7:50 AM 60.8 °F 57.2 °F 88% 30.06 in - WSW 4.6 mph - N/A   Clear
8:20 AM 62.6 °F 55.4 °F 77% 30.06 in - West 2.3 mph - N/A   Clear
8:50 AM 64.4 °F 53.6 °F 68% 30.06 in - Variable 2.3 mph - N/A   Clear
9:00 AM 64 °F 53 °F 58% 30.09 in 6 mi SW 2.3 mph - -   Clear
9:20 AM 66.2 °F 55.4 °F 68% 30.06 in - SW 3.5 mph - N/A   Clear
9:50 AM 66.2 °F 55.4 °F 68% 30.09 in - SW 5.8 mph - N/A   Clear
10:20 AM 66.2 °F 53.6 °F 64% 30.09 in - SSW 4.6 mph - N/A   Clear
10:50 AM 68.0 °F 57.2 °F 68% 30.09 in - SSW 3.5 mph - N/A   Clear
11:20 AM 66.2 °F 55.4 °F 68% 30.06 in - South 4.6 mph - N/A   Clear
11:50 AM 68.0 °F 57.2 °F 68% 30.06 in - South 4.6 mph - N/A   Clear
12:00 PM 68 °F 56 °F 56% 30.09 in 6 mi South 4.6 mph - -   Clear
12:20 PM 66.2 °F 57.2 °F 73% 30.09 in - South 4.6 mph - N/A   Clear
12:50 PM 66.2 °F 55.4 °F 68% 30.09 in - South 4.6 mph - N/A   Clear
1:20 PM 64.4 °F 57.2 °F 77% 30.06 in - SSW 4.6 mph - N/A   Clear
1:50 PM 66.2 °F 53.6 °F 64% 30.06 in - SW 3.5 mph - N/A   Clear
2:20 PM 68.0 °F 55.4 °F 64% 30.06 in - Variable 2.3 mph - N/A   Clear
2:50 PM 69.8 °F 55.4 °F 60% 30.06 in - Variable 2.3 mph - N/A   Clear
3:00 PM 71 °F 54 °F 44% 30.07 in 6 mi SW 2.3 mph - -   Clear
3:20 PM 73.4 °F 55.4 °F 53% 30.04 in - Variable 2.3 mph - N/A   Clear
3:50 PM 77.0 °F 53.6 °F 44% 30.04 in - SE 6.9 mph - N/A   Clear
4:20 PM 71.6 °F 55.4 °F 57% 30.04 in - South 4.6 mph - N/A   Clear
4:50 PM 69.8 °F 51.8 °F 53% 30.04 in - SSW 3.5 mph - N/A   Clear
5:20 PM 69.8 °F 51.8 °F 53% 30.04 in - SSW 2.3 mph - N/A   Clear
5:50 PM 71.6 °F 53.6 °F 53% 30.04 in - SW 2.3 mph - N/A   Clear
6:00 PM 71 °F 54 °F 44% 30.03 in 6 mi SW 2.3 mph - -   Clear
6:20 PM 71.6 °F 51.8 °F 50% 30.01 in - Calm Calm - N/A   Clear
6:50 PM 71.6 °F 51.8 °F 50% 30.01 in - East 5.8 mph - N/A   Clear
7:20 PM 73.4 °F 51.8 °F 47% 30.01 in - NE 10.4 mph - N/A   Clear
7:50 PM 71.6 °F 51.8 °F 50% 30.01 in - NE 6.9 mph - N/A   Clear
8:20 PM 69.8 °F 51.8 °F 53% 30.01 in - NNE 6.9 mph - N/A   Clear
8:50 PM 71.6 °F 51.8 °F 50% 30.01 in - NE 6.9 mph - N/A   Clear
9:00 PM 71 °F 50 °F 37% 30.03 in 6 mi NE 6.9 mph - -   Clear
9:20 PM 69.8 °F 51.8 °F 53% 30.01 in - NNE 5.8 mph - N/A   Clear
9:50 PM 71.6 °F 50.0 °F 46% 30.01 in - Variable 4.6 mph - N/A   Clear
10:20 PM 69.8 °F 51.8 °F 53% 30.01 in - NE 5.8 mph - N/A   Clear
10:50 PM 69.8 °F 51.8 °F 53% 30.01 in - NE 6.9 mph - N/A   Clear
11:20 PM 69.8 °F 51.8 °F 53% 29.98 in - NNE 8.1 mph - N/A   Clear
11:50 PM 69.8 °F 51.8 °F 53% 29.98 in - NE 9.2 mph - N/A   Clear